星链-34201 (STARLINK-34201)

导读

STARLINK-34201是美国SpaceX星链星座的一员,于2025年5月21日发射入轨,归属星链低轨互联网星座组网建设。星链星座旨在为全球用户提供覆盖广泛、低延迟的高速卫星互联网服务,该卫星的入轨进一步扩充了星链星座的部署规模,助力完善全球卫星互联网通信网络的覆盖能力。

Basic Information
目录编号:
64077
目录名称:
STARLINK-34201
国际标识:
2025-107P
轨道中心:
EARTH
卫星名称:
星链-34201
卫星全名:
星链-34201 (STARLINK-34201)
卫星状态:
在轨 (已飞行472 天)
发射日期:
2025-05-21 UTC
国别 :
美国 (US)
星等 :
--
Orbit Information
数据来源 国际轨道数据
星历时间: 2026-09-05T10:05:12+0800
9小时前
查看轨道信息
半长轴: 6861.187km
偏心率: 0.0002881
轨道倾角: 43.008°
近地点辐角 281.361°
升交点赤经 268.700°
平近点角 78.691°
近地点: 481.073km
远地点: 485.027km
周期: 94.267分钟
每日圈数: 15.2758
Detailed Information
固有亮度:
5
最大亮度:
2.5
卫星平台:
Starlink V1.0
覆盖范围:
全球
运营商:
太空探索技术公司
运营商所在国:
美国
制造商(研发单位):
太空探索技术公司
制造商所在国:
美国
使用方式:
暂无
Satellite Introduction
Starlink 计划是 SpaceX 推出的全球卫星互联网项目,通过发射低轨道卫星,为全球尤其是偏远地区提供高速、低延迟的互联网服务。自 2019 年起,Starlink 已部署数千颗卫星,旨在缩小全球数字鸿沟,推动互联网普及。该项目还为军事、航空等行业提供通信支持,带来广泛经济效益。
2D Orbit Map
3D Orbit Map
Orbit Altitude Analysis Chart
Orbit Inclination Analysis Chart
Orbit Comprehensive Analysis Chart
View Comprehensive Chart
Conjunction Data List
Event ID Objects TCA Miss Dist (km) Collision Risk Probability Collision Risk Index (CRI) Action
CDM_260907-144305-851906-407721
2026-09-07T
14:43:05+0000
0.311 km
远距离
3.63549E-4 高风险 0.86
CDM_260907-111506-407706-658321
2026-09-07T
11:15:38+0000
0.372 km
远距离
3.004901E-4 高风险 0.85
CDM_260907-124906-407706-658321
2026-09-07T
12:49:48+0000
0.787 km
远距离
4.546072E-5 中风险 0.68
CDM_260907-094106-407706-658321
2026-09-07T
09:41:29+0000
1.155 km
极远距离
1.241102E-5 中风险 0.57
CDM_260907-130805-851906-407721
2026-09-07T
13:08:56+0000
1.148 km
极远距离
1.075444E-5 中风险 0.56
CDM_260907-142306-407706-658321
2026-09-07T
14:23:57+0000
1.663 km
极远距离
3.703582E-6 低风险 0.46
CDM_260907-161705-851906-407721
2026-09-07T
16:17:14+0000
1.666 km
极远距离
3.166503E-6 低风险 0.45
CDM_260907-133905-305006-407721
2026-09-07T
13:39:44+0000
2.860 km
极远距离
1.395359E-6 低风险 0.38
CDM_260907-155806-407706-658321
2026-09-07T
15:58:06+0000
2.563 km
极远距离
1.329584E-6 低风险 0.37
CDM_260906-200006-383406-407722
HERMES-5 (63834)
2026-09-06T
20:00:11+0000
2.845 km
极远距离
1.309087E-6 低风险 0.37